Overview Statistics Trail Chart Weather Telemetry Raw packets
 

This is the latest recevied weather packets stored in our database for station/object SV9TNF-57. If no packets are shown the sender has not sent any weather packets the latest 10 day(s).

<< 34 35 36 37 38 39 40 >>
Time Temp. Humidity Pressure Rain* Wind** Luminosity Snow
1788426548 31.67° C 37% 993.4 hPa 0 mm 6.71 m/s, 319° - -
1788426249 31.67° C 35% 993.4 hPa 0 mm 6.71 m/s, 266° - -
1788425949 31.67° C 34% 993.4 hPa 0 mm 4.92 m/s, 276° - -
1788425648 31.11° C 35% 993.4 hPa 0 mm 10.28 m/s, 9° - -
1788425348 31.11° C 35% 993.5 hPa 0 mm 2.68 m/s, 310° - -
1788425048 31.67° C 35% 993.2 hPa 0 mm 13.41 m/s, 300° - -
1788424748 31.67° C 35% 993.2 hPa 0 mm 3.58 m/s, 313° - -
1788424448 31.67° C 36% 993.3 hPa 0 mm 2.24 m/s, 277° - -
1788424148 31.67° C 35% 993.2 hPa 0 mm 15.65 m/s, 1° - -
1788423848 31.67° C 36% 993.1 hPa 0 mm 4.02 m/s, 236° - -
1788423548 31.67° C 36% 993.2 hPa 0 mm 5.81 m/s, 279° - -
1788423248 31.11° C 36% 993.3 hPa 0 mm 12.07 m/s, 315° - -
1788422947 31.67° C 36% 993.1 hPa 0 mm 9.83 m/s, 19° - -
1788422648 31.11° C 37% 992.9 hPa 0 mm 4.02 m/s, 290° - -
1788422347 31.11° C 37% 993.3 hPa 0 mm 8.05 m/s, 331° - -
1788422047 31.11° C 38% 993 hPa 0 mm 8.49 m/s, 86° - -
1788421752 30.56° C 37% 993.1 hPa 0 mm 12.96 m/s, 282° - -
1788421447 30.56° C 37% 993.1 hPa 0 mm 4.92 m/s, 289° - -
1788421147 31.11° C 36% 993.3 hPa 0 mm 8.05 m/s, 305° - -
1788420847 31.11° C 35% 993 hPa 0 mm 8.94 m/s, 291° - -
1788420547 31.11° C 35% 993.3 hPa 0 mm 5.36 m/s, 252° - -
1788420247 31.11° C 35% 993.2 hPa 0 mm 12.52 m/s, 313° - -
1788419946 31.11° C 34% 993.3 hPa 0 mm 2.68 m/s, 219° - -
1788419646 31.11° C 35% 993.2 hPa 0 mm 8.49 m/s, 280° - -
1788419346 31.67° C 34% 993.5 hPa 0 mm 3.13 m/s, 311° - -

* Rain latest hour (hover to see other rain measurements)
** Current wind speed in m/s (hover to see current wind gust speed)